Miscellaneous Local Product
Issued by NWS Hastings, NE

Home | Current Version | Previous Version | Graphics & Text | Print | Product List | Glossary On
Versions: 1 2 3 4 5 6 7 8 9 10 11 12 13 14 15 16 17 18 19 20 21 22 23 24 25 26 27 28 29 30 31 32 33 34 35 36 37 38 39 40 41 42 43 44 45 46 47 48 49 50
000
AXUS43 KGID 250902
MISGRI

GID CWA HOURLY WEATHER ROUNDUP
NATIONAL WEATHER SERVICE HASTINGS NE
400 AM CDT MON AUG 25 2014

NOTE: "FAIR" INDICATES FEW OR NO CLOUDS BELOW 12,000 FEET WITH NO
SIGNIFICANT WEATHER AND/OR OBSTRUCTIONS TO VISIBILITY.

...SOUTH CENTRAL NEBRASKA...

CITY           SKY/WX    TMP DP  RH WIND       PRES   REMARKS
GRAND ISLAND   CLEAR     62  59  90 CALM      29.93F
HASTINGS       CLEAR     64  58  80 CALM      29.93F
KEARNEY        CLEAR     61  57  88 N6        29.94S
ORD            CLEAR     59  57  93 NW8       29.98R
YORK           CLEAR     63 N/A N/A NW3       29.92F
AURORA         CLEAR     62  62  98 CALM      29.93S
LEXINGTON      CLEAR     60  58  94 NE3       29.95S
HOLDREGE       CLEAR     61  57  86 CALM      29.94S
HEBRON         CLEAR     65  61  86 CALM      29.90F

...NEBRASKA PANHANDLE...

CITY           SKY/WX    TMP DP  RH WIND       PRES   REMARKS
CHADRON        CLEAR     49  43  80 SW8       30.10R
ALLIANCE       CLEAR     50  43  77 N8        30.09R
SCOTTSBLUFF    PTCLDY    53  42  66 W12       30.13R
SIDNEY         CLEAR     59  44  57 N12       30.09R

...WESTERN AND NORTH CENTRAL NEBRASKA...

CITY           SKY/WX    TMP DP  RH WIND       PRES   REMARKS
VALENTINE      CLEAR     52  46  80 NW3       30.04F
AINSWORTH      CLEAR     53  48  83 N6        30.04R
ONEILL         CLEAR     61  55  80 N10       30.00R
BROKEN BOW     CLEAR     59  55  87 N7        29.99R
IMPERIAL       CLOUDY    64  56  75 SE9       30.01R
NORTH PLATTE   MOCLDY    63  55  75 CALM      30.02R
MCCOOK         LGT RAIN  63  56  78 W12G22    30.09R

...EASTERN NEBRASKA...

CITY           SKY/WX    TMP DP  RH WIND       PRES   REMARKS
NORFOLK        CLEAR     60  57  89 CALM      29.92F
SO SIOUX CITY  CLEAR     64  62  93 N3        29.90F
TEKAMAH        CLEAR     67  65  93 N3        29.89F
COLUMBUS       CLEAR     61  57  88 CALM      29.92F
ALBION         CLEAR     58  56  91 NW6       29.94F
OMAHA EPPLEY   MOCLDY    72  67  84 N3        29.88F
OFFUTT AFB     MOCLDY    71  71 100 S3        29.88F
MILLARD        PTCLDY    72  67  85 CALM      29.88F
LINCOLN        CLEAR     70  64  81 CALM      29.89F
NEBRASKA CITY  PTCLDY    71  71 100 CALM      29.90S
BEATRICE       CLEAR     70  68  95 CALM      29.89F
FALLS CITY     PTCLDY    75  68  78 CALM      29.91R

...NORTHERN KANSAS...

CITY           SKY/WX    TMP DP  RH WIND       PRES   REMARKS
GOODLAND       CLOUDY    61  58  90 E7        30.03F
HILL CITY      PTCLDY    63  58  83 S5        29.93F
NORTON         MOSUNNY   68  57  68 E5        29.94R
PHILLIPSBURG   CLEAR     63  59  88 CALM      29.93S
SMITH CENTER   CLEAR     66  61  82 E9        29.92S
BELOIT         CLEAR     70  66  88 CALM      29.88S
HAYS           CLEAR     66  57  72 SE3       29.93S
RUSSELL        CLEAR     69  64  84 E8        29.90F
CONCORDIA      CLEAR     68  67  96 SE6       29.89F
SALINA         CLEAR     79  65  62 S12       29.89F
TOPEKA         TSTM      77  73  87 N3        29.96R



USA.gov is the U.S. government's official web portal to all federal, state and local government web resources and services.